{"data":{"norad_id":68126,"intl_designator":"2026-045A","name":"ECHOSTAR 25","alt_names":[],"object_type":"PAYLOAD","status":"ACTIVE","operator":null,"country":"US","launch_date":"2026-03-10","launch_site_code":"AFETR","launch_vehicle":null,"mission":null,"orbit_class":"UNKNOWN","rcs_meters":null,"size_class":null,"mass_kg":null,"dimensions":null,"purposes":["comms"],"wikipedia_slug":null,"has_3d_model":false,"image_url":null,"decayed_at":null,"tle_current":{"epoch":"2026-09-19T13:44:22.339392Z","epoch_age_seconds":98486,"freshness":"FRESH","line1":"1 68126U 26045A   26262.57248078 -.00000061  00000+0  00000+0 0  9995","line2":"2 68126   0.0178 171.3742 0001595 358.7317 284.4796  1.00272160  1932","mean_motion":1.0027216,"eccentricity":0.0001595,"inclination_deg":0.0178,"raan_deg":171.3742,"arg_perigee_deg":358.7317,"mean_anomaly_deg":284.4796,"bstar":0,"rev_number":193,"period_min":1436.091533283,"perigee_km":35779.764577425,"apogee_km":35793.215093386,"semimajor_km":42164.626835405,"source":"CELESTRAK","updated_at":"2026-09-20T09:00:35.349123Z"}}}